Regional Weather Roundup
Issued by NWS

Home | Current Version | Previous Version | Graphics & Text | Print | Product List | Glossary On
Versions: 1 2 3 4 5 6 7 8 9 10 11 12 13 14 15 16 17 18 19 20 21 22 23 24 25 26 27 28 29 30 31 32 33 34 35 36 37 38 39 40 41 42 43 44 45 46 47 48 49 50
000
ASUS43 KBIS 232320
RWRND

NORTH DAKOTA REGIONAL WEATHER ROUNDUP
NATIONAL WEATHER SERVICE BISMARCK ND
600 PM CDT WED JUL 23 2014

NOTE: "FAIR" INDICATES FEW OR NO CLOUDS BELOW 12,000 FEET WITH NO
SIGNIFICANT WEATHER AND/OR OBSTRUCTIONS TO VISIBILITY.


NDZ001>003-009>011-017-240000-
NORTHWEST NORTH DAKOTA

CITY           SKY/WX    TMP DP  RH WIND       PRES   REMARKS
WILLISTON      MOSUNNY   86  62  44 SE21G28   30.06F
MINOT          MOSUNNY   76  66  71 E16       30.15F
MINOT AFB      MOSUNNY   76  68  76 E16       30.15F
$$

NDZ018>021-031>035-040>046-240000-
SOUTHWEST NORTH DAKOTA

CITY           SKY/WX    TMP DP  RH WIND       PRES   REMARKS
BISMARCK       SUNNY     83  59  44 SE17      30.15F
DICKINSON      MOSUNNY   82  64  54 SE18G26   30.10F
GARRISON         N/A     79  64  60 SE14      30.15F
HETTINGER ARPT SUNNY     81  61  50 SE16G26   30.12F
$$

NDZ004>008-012>016-024-026-027-054-240000-
NORTHEAST NORTH DAKOTA

CITY           SKY/WX    TMP DP  RH WIND       PRES   REMARKS
GRAND FORKS    MOSUNNY   75  58  55 VRB5      30.22F
GRND FRKS AFB  SUNNY     74  59  60 NE7       30.24F
DEVILS LAKE    SUNNY     73  57  56 SE8       30.21F
$$

NDZ022-023-025-028>030-036>039-047>053-240000-
SOUTHEAST NORTH DAKOTA

CITY           SKY/WX    TMP DP  RH WIND       PRES   REMARKS
FARGO          MOSUNNY   78  58  49 N9        30.21F
JAMESTOWN      PTSUNNY   78  59  51 SE10      30.20F
$$




USA.gov is the U.S. government's official web portal to all federal, state and local government web resources and services.